Content
SEND FEEDBACK

Daily
Averages
Monthly
Summary
United States of America

EARTH CITY, MISSOURI


Home > North America > United States > Missouri
Elevation: 476 feet     Latitude: 38 46N     Longitude: 090 30W

WEATHER
 
SELECT A DAY
Number of Records: 203,322;   Date Range: 1/1/95 - 7/20/14
 
SHARE

PRINT THIS DATA

[ ← Previous Day ]
WEATHER ALMANAC - JANUARY 1, 2013
[ Next Day → ]
[ °C ]   °F
Weather ElementAverageHighLow
Temperature23.7 °F30.2 °F (12:14 am)18 °F (10:51 pm)
Dewpoint16.9 °F26.6 °F (12:14 am)10 °F (11:51 pm)
Humidity75.2 %86 % (12:14 am)60 % (3:51 pm)
Barometer30.23 in30.33 in (10:51 pm)30.12 in (12:14 am)
Wind Speed8.6 mph13.8 mph (12:14 am)
Weather ElementAverage
Visibility7.5 mi
Wind DirectionWNW (280.6 °)

Weather ElementTotal
Precipitation---
Heating Degree Days40.9 (Base 65)
Averaged from 34 records on January 1, 2013
WEATHER CONDITIONS BREAKOUT
WIND DIRECTION BREAKOUT
WEATHER BY HOUR - JANUARY 1, 2013
[ °C ]   °F
Local TimeTemperatureDewpointHumidityBarometerVisibilityWind DirectionWind SpeedGust SpeedPrecipitationEventsConditions
12:14 AM30.2 °F26.6 °F86 %30.12 in3.0 miNorth (360°)13.8 mph0.00 inSnowLight Snow
12:36 AM28.4 °F24.8 °F86 %30.12 in4.0 miNorth (10°)13.8 mph0.00 inSnowLight Snow
12:51 AM28.0 °F24.1 °F85 %30.16 in4.0 miNorth (10°)10.4 mph0.00 inSnowLight Snow
1:02 AM28.4 °F23.0 °F80 %30.12 in4.0 miNorth (10°)9.2 mph0.00 inSnowLight Snow
1:44 AM26.6 °F21.2 °F80 %30.14 in5.0 miNorth (350°)11.5 mph0.00 inSnowLight Snow
1:51 AM27.0 °F21.0 °F78 %30.18 in5.0 miNorth (350°)10.4 mph0.00 inSnowLight Snow
2:21 AM26.6 °F21.2 °F80 %30.14 in7.0 miNorth (360°)8.1 mph0.00 inSnowLight Snow
2:51 AM26.1 °F19.9 °F78 %30.19 in8.0 miNorth (350°)11.5 mph0.00 inSnowLight Snow
3:17 AM24.8 °F19.4 °F80 %30.16 in8.0 miNorth (360°)10.4 mph0.00 inSnowLight Snow
3:51 AM25.0 °F18.0 °F75 %30.19 in9.0 miNorth (360°)11.5 mph0.00 inOvercast
4:51 AM24.1 °F18.0 °F77 %30.21 in8.0 miNorth (350°)9.2 mphOvercast
4:59 AM24.8 °F17.6 °F74 %30.17 in8.0 miNorth (350°)11.5 mphOvercast
5:51 AM23.0 °F17.1 °F78 %30.19 in8.0 miNorth (360°)11.5 mphOvercast
6:03 AM23.0 °F17.6 °F80 %30.15 in7.0 miNorth (10°)10.4 mphOvercast
6:51 AM21.9 °F16.0 °F78 %30.21 in8.0 miNorth (360°)10.4 mphOvercast
7:47 AM21.2 °F15.8 °F80 %30.22 in7.0 miNNW (340°)5.8 mphOvercast
7:51 AM21.9 °F15.1 °F75 %30.27 in7.0 miNNW (340°)8.1 mphOvercast
8:17 AM21.2 °F15.8 °F80 %30.23 in7.0 miNorth (350°)8.1 mphOvercast
8:51 AM21.9 °F15.1 °F75 %30.28 in7.0 miNNW (330°)9.2 mphOvercast
9:51 AM21.9 °F15.1 °F75 %30.25 in8.0 miNorth (10°)12.7 mphMostly Cloudy
10:51 AM23.0 °F16.0 °F74 %30.28 in8.0 miNorth (350°)13.8 mphMostly Cloudy
11:51 AM24.1 °F16.0 °F71 %30.26 in8.0 miNorth (360°)10.4 mphMostly Cloudy
12:51 PM25.0 °F17.1 °F72 %30.25 in8.0 miNNW (340°)9.2 mphMostly Cloudy
1:51 PM25.0 °F17.1 °F72 %30.25 in8.0 miNW (320°)3.5 mphMostly Cloudy
2:51 PM26.1 °F16.0 °F66 %30.26 in8.0 miNW (310°)5.8 mphMostly Cloudy
3:51 PM26.1 °F14.0 °F60 %30.27 in9.0 miNorth (350°)4.6 mphMostly Cloudy
4:51 PM24.1 °F12.9 °F62 %30.28 in9.0 miNNW (330°)6.9 mphMostly Cloudy
5:51 PM21.9 °F14.0 °F72 %30.29 in10.0 miNW (320°)5.8 mphScattered Clouds
6:51 PM21.0 °F12.9 °F71 %30.30 in10.0 miNW (320°)6.9 mphPartly Cloudy
7:51 PM19.9 °F12.0 °F71 %30.30 in10.0 miNNW (340°)5.8 mphPartly Cloudy
8:51 PM19.0 °F10.9 °F71 %30.30 in10.0 miNNW (330°)3.5 mphPartly Cloudy
9:51 PM19.0 °F10.9 °F71 %30.31 in9.0 miCalmScattered Clouds
10:51 PM18.0 °F10.9 °F74 %30.33 in8.0 miWest (280°)4.6 mphScattered Clouds
11:51 PM18.0 °F10.0 °F71 %30.31 in8.0 miWest (270°)3.5 mphMostly Cloudy
Hourly data recorded from KSTL, located miles away from Earth City, Missouri







STORIES FROM OUR PARTNERS